Theta_e
313 312 312 312 312 313 313 314 315 315 315 315 314 313 313 312 312 312 313 313 313 313 313 314 316 319 314 306 306 315 325 323 314 308 305 303 300 299 295 296 297 296 298 300 301 303 304
313 313 313 313 313 312 312 313 314 314 313 314 314 314 314 313 313 312 311 312 312 312 313 313 316 318 309 298 310 314 318 313 308 305 305 304 302 302 298 297 296 300 300 300 300 303 304
311 311 312 312 313 313 313 313 313 313 313 313 314 314 314 313 313 312 312 311 311 312 312 312 315 315 306 302 311 309 311 310 313 308 304 307 306 301 300 297 302 301 297 298 298 300 300
310 310 311 312 312 311 311 313 313 313 313 313 313 313 313 313 312 312 311 311 311 312 312 313 314 313 300 313 311 312 312 310 311 313 310 310 308 303 299 301 300 297 295 290 296 300 302
310 310 310 311 311 311 312 312 313 313 313 313 313 313 312 312 311 311 311 311 311 311 312 314 311 306 299 315 310 312 310 307 310 311 310 313 307 300 299 294 291 292 287 290 294 300 301
309 309 311 311 311 311 311 311 311 312 312 312 312 313 312 312 311 310 310 310 310 310 310 314 314 300 304 301 308 309 308 308 306 306 305 302 298 294 293 290 285 287 289 288 290 296 299
308 308 308 310 311 310 310 311 311 310 311 312 312 312 312 312 312 310 307 302 299 301 305 303 304 300 300 307 312 306 309 307 305 302 296 298 292 290 291 294 295 294 292 291 294 299 299
307 307 307 309 309 310 311 311 311 310 310 310 311 311 311 311 311 310 305 297 299 298 291 302 306 307 309 310 304 306 307 300 299 294 298 295 291 296 297 297 296 295 293 292 295 300 299
307 307 307 308 309 310 310 311 310 310 310 310 310 311 310 310 310 305 300 300 305 303 293 298 303 303 306 308 303 303 304 300 297 294 295 293 296 300 298 296 294 294 293 293 293 295 296
306 307 308 308 309 309 310 310 310 310 310 310 310 310 309 309 302 301 298 306 307 304 287 290 296 298 301 302 296 305 305 301 297 294 296 295 300 298 296 295 296 291 298 297 296 293 287
306 307 308 307 308 309 309 309 310 310 310 310 310 309 309 309 299 298 303 306 307 302 271 289 295 305 302 295 297 299 305 301 294 297 297 295 296 296 295 296 299 295 300 298 298 293 289
306 307 307 308 308 308 309 309 309 309 310 310 309 309 309 304 300 301 305 307 304 288 275 289 296 294 294 295 296 300 299 302 301 296 298 297 302 299 298 301 300 301 297 297 295 291 284
305 306 307 307 308 308 308 309 309 309 309 309 309 309 307 304 294 301 304 302 288 280 289 286 294 297 293 291 292 295 294 292 291 288 289 295 296 299 300 296 298 297 292 284 283 283 282
305 306 306 307 308 308 308 308 308 309 309 309 308 308 307 304 300 300 302 293 280 285 285 292 292 292 293 293 291 293 292 289 294 293 290 288 286 296 299 297 294 294 293 285 281 280 284
305 305 306 306 307 308 308 308 309 309 308 308 308 304 302 302 301 301 293 283 283 286 290 287 289 286 287 295 295 292 291 290 293 295 289 289 289 298 299 300 298 295 290 297 289 289 284
304 305 305 306 307 307 308 308 308 309 309 308 302 300 298 303 301 298 288 284 287 292 292 291 285 288 285 288 290 290 291 296 294 297 298 294 288 297 299 299 299 297 298 289 290 283 281
303 304 305 305 306 306 307 308 308 308 309 308 300 293 300 302 301 292 282 284 288 293 293 290 288 286 287 288 290 290 291 295 298 297 298 296 292 292 297 294 292 293 291 292 293 291 283
303 303 304 304 305 306 306 307 308 308 308 305 298 287 299 303 286 287 283 287 292 290 293 291 292 289 287 289 288 289 291 294 301 301 294 296 293 288 291 298 299 297 295 293 286 287 288
302 303 303 304 304 305 305 306 307 307 308 302 292 291 300 298 280 282 286 287 289 288 289 289 288 290 291 288 284 290 292 299 303 301 297 297 290 285 287 292 296 293 295 296 294 291 286
302 303 303 304 305 305 305 306 306 307 307 303 288 284 292 293 289 284 284 285 285 292 289 290 289 291 288 286 289 286 289 297 302 300 302 301 295 289 285 289 293 291 293 296 294 285 287
302 302 303 303 304 304 305 305 306 306 307 302 289 286 290 283 285 286 286 286 285 284 290 291 287 287 287 284 285 285 291 297 301 302 301 299 290 293 293 294 295 294 294 294 292 292 289
301 302 302 303 303 304 305 305 305 306 306 299 284 288 291 286 290 286 286 284 284 286 287 287 286 288 288 285 286 285 289 293 296 300 298 299 291 292 290 294 295 293 295 295 294 293 293
302 302 302 303 303 304 305 305 305 305 305 297 296 294 292 289 286 286 284 284 286 287 289 290 289 288 287 289 291 292 297 299 299 297 296 295 292 290 286 291 292 287 292 294 294 295 296
302 303 303 303 304 304 304 304 304 304 304 300 298 295 289 284 285 285 288 288 287 288 286 290 291 288 292 296 297 299 297 298 298 298 301 293 291 290 284 285 281 292 298 297 295 296 298
302 302 303 303 303 303 303 303 303 304 303 298 299 296 290 285 287 287 288 288 289 290 288 290 292 294 295 291 287 286 285 287 290 296 298 298 292 285 283 283 289 292 295 295 294 292 298
301 302 302 302 302 302 302 302 303 303 304 299 298 300 295 288 286 290 287 289 286 286 287 289 295 296 293 287 283 279 277 284 285 290 297 295 294 287 284 282 280 289 296 301 301 288 298
301 302 302 302 302 302 302 302 302 302 303 300 298 299 293 286 291 292 287 287 291 288 285 288 290 290 293 283 279 278 279 288 282 283 284 285 285 284 285 284 286 295 300 302 289 289 300
302 302 302 302 302 302 302 302 302 303 303 301 297 299 293 286 290 295 294 290 291 290 285 288 288 289 287 282 281 280 278 285 285 289 287 285 284 283 285 283 280 300 300 294 296 300 303
302 302 302 302 302 302 302 302 303 303 303 302 295 299 299 293 292 299 299 298 298 297 293 291 290 290 290 285 284 283 280 280 284 281 291 285 290 287 289 288 298 301 302 304 304 302 303
Wind_Speed
12 13 12 11 11 12 14 13 9 8 9 11 12 11 11 15 16 16 14 13 15 16 17 18 18 16 8 2 13 4 7 6 6 6 5 4 3 2 5 4 5 5 8 7 9 5 8
13 13 14 12 12 12 12 12 11 8 8 9 11 12 13 11 11 13 16 15 16 15 15 17 16 15 2 7 7 7 7 6 4 4 5 6 6 6 6 6 2 4 6 9 6 6 4
15 15 14 12 14 14 14 11 10 10 8 9 10 11 13 13 13 12 12 14 17 16 14 16 14 8 9 21 5 3 4 3 4 5 6 5 7 3 4 9 4 5 6 9 7 2 2
15 16 16 14 13 10 13 14 13 11 11 11 12 10 12 13 13 13 15 16 17 17 16 17 11 5 12 8 8 11 7 8 9 11 7 8 5 6 5 7 8 5 2 3 4 2 6
17 16 16 15 14 13 12 11 13 13 12 10 10 11 12 12 13 14 16 19 21 23 13 10 4 4 14 9 5 10 14 7 3 7 6 8 4 6 4 2 6 3 6 5 10 7 3
17 18 17 16 15 14 13 13 13 11 12 11 9 10 12 13 13 13 16 22 25 13 5 5 4 2 9 6 4 4 7 13 6 4 2 5 2 5 2 4 9 6 4 3 6 6 3
19 19 19 19 17 16 18 17 15 13 10 11 10 8 10 12 12 12 8 8 4 1 1 9 9 8 12 3 5 4 4 8 4 4 9 4 4 14 10 9 7 6 6 9 12 11 6
20 20 20 21 21 21 20 19 17 14 13 12 10 9 9 11 12 10 4 3 4 4 12 15 21 23 25 9 10 15 1 8 7 10 6 3 19 13 8 8 9 9 13 14 10 4 7
19 19 21 22 22 22 20 20 18 15 14 11 10 9 8 9 11 5 4 9 8 7 6 10 20 15 18 16 17 21 4 6 7 7 11 13 7 16 12 12 12 15 13 13 9 5 4
19 19 20 22 22 22 20 20 19 16 15 13 10 10 7 6 5 2 4 2 6 3 6 9 9 11 13 10 10 25 14 8 7 16 11 8 17 12 10 15 10 11 11 9 6 2 3
20 20 21 22 21 20 18 19 19 18 15 14 11 10 9 8 4 1 6 12 11 2 7 7 6 4 8 17 8 10 25 7 13 13 10 9 8 15 17 17 11 13 16 8 6 3 2
22 22 23 22 20 19 19 19 19 17 16 14 13 11 10 4 1 5 10 11 3 2 14 7 5 7 8 10 4 4 8 3 4 11 11 13 9 7 12 13 13 16 5 3 3 2 4
23 24 23 22 21 21 20 18 18 17 17 16 14 13 10 5 4 1 7 5 4 10 3 5 5 7 6 8 7 1 10 17 8 10 15 14 18 11 6 9 8 7 5 2 4 2 8
25 24 23 22 21 21 20 19 18 18 18 18 16 12 9 9 2 4 3 3 14 5 11 4 5 9 2 5 5 3 3 6 15 4 6 12 8 18 9 16 8 8 10 7 6 4 6
25 26 24 24 23 21 21 20 19 18 19 18 15 5 3 7 5 3 3 10 10 5 5 9 13 8 4 4 5 9 9 8 10 16 8 8 13 5 10 10 10 5 4 8 6 2 2
27 27 25 24 22 21 21 20 18 18 19 18 5 5 8 7 8 4 6 21 9 5 9 7 2 2 3 7 5 7 4 6 10 12 13 6 4 11 18 5 9 11 7 3 2 4 4
28 26 26 25 23 21 21 21 20 19 20 19 6 4 5 11 6 5 15 17 11 15 9 5 4 4 6 6 5 3 4 11 5 17 15 16 5 5 7 12 8 4 3 2 6 6 6
28 27 28 26 24 23 22 21 20 20 20 15 4 6 6 12 9 8 22 12 11 14 4 13 5 6 6 4 5 4 4 3 12 5 6 12 11 13 17 6 11 11 11 10 6 5 4
28 28 29 27 26 25 24 23 22 23 24 6 5 3 5 13 13 18 14 23 18 6 5 4 7 13 4 3 4 6 4 7 6 6 6 2 8 3 7 10 12 6 7 12 6 4 10
29 29 28 27 27 26 25 25 25 25 26 11 5 6 6 12 5 12 19 20 20 13 23 21 13 11 9 10 7 7 7 8 7 4 9 1 7 16 18 6 5 5 8 18 15 5 6
30 30 28 27 27 26 26 27 27 27 28 14 6 6 6 13 18 15 16 8 23 19 13 9 10 22 8 7 7 8 4 5 5 7 7 6 14 17 14 13 10 7 6 14 14 10 9
32 30 29 28 27 27 28 28 27 28 28 13 7 6 5 2 16 23 22 22 22 18 12 14 17 10 14 16 10 7 8 5 4 3 5 10 7 7 10 9 16 17 18 13 7 6 7
31 30 29 28 27 28 26 31 26 25 23 8 5 3 5 11 12 17 31 20 17 17 13 17 12 12 15 12 9 8 7 4 2 4 3 3 6 10 15 11 15 11 17 10 6 5 7
29 29 29 28 27 24 23 25 25 26 24 13 3 7 6 7 18 24 11 20 21 19 20 11 14 14 10 10 3 1 3 5 5 5 5 6 3 2 5 2 12 20 8 7 12 12 11
24 22 22 22 24 25 26 26 27 27 28 10 3 5 6 11 14 18 19 15 18 18 21 16 12 5 6 4 3 5 4 5 5 7 10 6 6 1 5 8 7 13 7 15 16 10 8
25 26 26 26 26 27 27 28 28 28 28 13 7 4 1 8 20 18 18 16 12 14 14 17 18 11 4 1 3 9 6 2 3 2 6 7 6 5 1 8 14 2 8 3 2 7 5
27 28 28 29 29 29 29 30 30 30 29 15 4 11 3 2 8 14 15 18 10 8 4 5 7 8 7 3 2 4 8 7 5 6 4 2 3 7 2 7 8 8 5 2 9 5 2
27 27 28 29 31 31 31 31 32 31 31 20 10 14 11 1 5 6 12 10 11 12 9 4 4 4 2 6 5 5 4 7 5 5 6 7 6 3 3 4 8 3 5 3 5 2 6
18 22 24 25 28 29 30 32 32 34 36 30 8 11 10 4 4 8 5 7 20 18 12 5 6 5 7 4 3 2 1 1 7 9 5 5 6 7 10 10 10 2 8 5 1 2 5
Wind_Direction
306 304 300 303 302 301 304 303 303 329 327 320 310 298 302 311 316 320 319 320 320 322 325 322 321 322 338 311 252 261 157 142 137 153 174 186 217 209 238 256 341 200 266 301 291 251 123
308 301 301 300 293 294 300 302 301 290 306 317 306 305 302 292 303 314 315 314 311 313 320 319 319 322 249 262 258 269 183 149 202 181 190 173 215 202 271 257 231 281 301 293 262 251 178
308 308 302 312 303 304 300 298 294 290 293 303 300 299 295 299 303 299 296 299 299 302 308 306 308 301 258 246 265 308 343 259 172 204 195 215 220 124 326 324 292 296 338 321 293 301 164
299 298 300 305 292 293 306 297 295 300 303 300 301 301 304 299 299 302 302 297 292 292 295 287 287 274 257 253 258 254 250 267 231 236 222 224 211 220 183 245 334 333 345 341 301 285 228
299 297 293 294 296 298 298 288 284 286 285 290 293 296 300 303 302 305 303 303 292 287 283 271 223 214 263 293 230 245 202 221 240 209 217 235 205 215 275 69 348 313 252 237 302 225 188
296 296 294 294 289 288 288 284 290 282 282 275 283 293 299 301 303 306 312 303 289 288 235 200 219 324 259 244 245 255 174 184 214 221 244 208 186 188 103 109 233 216 229 308 292 288 153
295 294 293 291 288 285 285 282 282 282 288 282 271 278 293 300 304 312 337 335 1 27 215 204 187 249 287 247 300 291 227 139 184 190 193 195 191 219 202 204 233 300 301 275 278 254 151
290 288 288 289 289 286 278 276 274 274 273 278 277 271 282 300 306 317 329 276 288 117 295 255 249 239 255 284 308 289 126 162 161 209 141 205 234 219 197 225 238 248 265 275 281 245 173
283 283 283 285 286 284 279 276 272 269 267 265 270 261 271 298 307 305 210 246 290 324 248 265 232 225 230 202 224 256 200 190 188 178 204 206 224 196 201 231 237 249 248 262 243 292 267
287 283 282 282 280 279 276 274 273 271 262 259 254 253 247 297 311 244 249 328 283 223 282 260 225 238 211 190 228 221 192 176 206 203 212 224 237 239 214 237 213 256 243 241 265 125 241
281 280 280 282 277 273 269 266 261 257 255 253 243 243 230 191 280 263 342 331 323 82 294 243 219 163 166 171 156 224 201 157 199 195 174 216 186 214 225 229 228 246 251 246 240 221 131
285 284 282 276 273 270 265 260 254 250 247 245 237 229 216 257 242 260 307 307 336 134 246 273 183 155 139 201 255 76 143 204 158 217 231 215 254 186 217 231 226 246 219 43 35 60 301
284 280 277 274 271 264 261 257 252 245 239 237 229 226 202 205 213 355 339 328 186 219 233 238 182 170 168 166 240 140 173 185 174 182 219 229 246 252 230 244 264 206 100 313 330 340 245
284 279 278 273 268 263 255 249 249 240 232 226 221 208 213 219 167 27 335 241 220 241 238 10 35 28 212 125 245 193 150 173 217 223 177 207 240 225 221 206 204 192 167 170 211 213 256
279 277 275 272 266 261 256 244 238 232 229 224 218 218 185 220 157 114 257 223 219 165 246 273 316 329 271 197 217 181 206 206 206 202 191 190 232 271 199 223 184 203 166 189 145 128 54
275 274 275 269 263 257 252 245 238 229 222 214 199 196 210 155 142 134 238 232 220 246 318 9 306 286 34 15 56 30 205 244 204 198 203 245 301 229 253 203 224 186 173 109 3 153 248
272 271 270 266 260 254 248 242 234 226 219 208 185 204 193 135 116 195 223 230 237 260 310 344 314 322 359 6 20 331 265 298 238 217 202 209 200 279 218 221 202 152 167 117 144 152 178
270 268 267 259 259 253 250 239 233 225 213 198 174 208 167 143 183 209 224 206 256 277 257 243 293 268 198 344 278 266 267 267 357 332 237 213 209 230 242 268 212 206 196 177 179 208 191
266 267 262 256 254 247 243 241 233 223 210 185 169 152 163 161 205 216 222 219 248 262 251 237 249 233 130 118 338 260 266 300 66 345 348 339 231 235 246 257 242 199 204 209 160 133 200
267 264 258 253 250 243 238 232 229 221 211 197 141 168 176 202 240 205 218 223 222 218 242 254 280 294 290 265 221 268 314 303 338 335 310 245 235 230 223 232 190 206 212 212 202 163 188
267 262 256 252 247 243 237 234 226 219 208 198 182 214 190 198 206 218 203 209 218 223 235 217 250 242 251 283 239 241 278 310 307 15 0 45 262 240 240 210 237 249 228 210 206 190 179
262 259 255 248 245 240 239 228 227 219 207 207 166 185 161 78 182 203 221 212 223 206 216 218 229 243 225 239 242 315 330 269 219 18 36 11 302 320 266 224 219 226 257 236 221 223 229
261 256 250 247 240 242 234 220 205 200 197 213 157 226 172 188 188 192 214 214 213 218 251 230 249 249 248 253 247 246 260 251 201 152 97 60 348 349 257 275 239 243 209 241 214 185 172
259 256 251 241 235 220 214 209 209 203 197 216 161 149 182 203 201 212 186 203 210 218 218 230 229 238 245 246 230 206 242 231 217 217 166 174 271 308 278 238 230 252 181 216 230 238 232
253 248 240 228 220 220 217 213 210 208 199 220 155 192 183 213 211 213 202 194 198 217 231 246 248 236 251 259 214 265 307 330 233 228 193 168 119 325 272 228 255 229 232 206 216 253 221
248 244 237 232 228 223 220 218 212 211 207 199 202 180 151 212 217 200 201 187 188 208 225 239 246 254 298 143 189 215 216 172 268 88 79 107 94 130 105 278 224 186 217 169 111 257 251
248 244 238 233 228 224 219 217 213 211 205 195 195 170 98 276 225 183 195 197 180 160 190 184 208 241 171 173 210 215 233 180 216 175 177 134 91 212 199 262 278 252 289 218 202 221 292
251 244 240 233 229 223 218 215 211 207 203 193 193 176 180 203 285 241 183 161 176 196 191 194 107 251 97 175 169 216 191 198 165 184 176 167 164 149 126 288 263 220 17 121 289 286 55
238 239 234 227 223 220 215 210 209 209 198 189 186 173 173 186 295 299 271 189 190 191 186 173 180 167 205 149 195 125 233 57 141 230 200 233 165 193 170 214 244 172 145 152 313 328 328